TimeCDT,TemperatureF,Dew PointF,Humidity,Sea Level PressureIn,VisibilityMPH,Wind Direction,Wind SpeedMPH,Gust SpeedMPH,PrecipitationIn,Events,Conditions,WindDirDegrees,DateUTC
12:53 AM,69.1,62.1,78,29.99,10.0,ENE,3.5,-,N/A,,Clear,70,2013-06-14 05:53:00
1:53 AM,69.1,62.1,78,29.98,10.0,ESE,4.6,-,N/A,,Clear,120,2013-06-14 06:53:00
2:53 AM,68.0,62.1,81,29.99,10.0,Calm,Calm,-,N/A,,Clear,0,2013-06-14 07:53:00
3:53 AM,66.9,62.1,84,29.99,10.0,ESE,5.8,-,N/A,,Clear,110,2013-06-14 08:53:00
4:53 AM,66.9,63.0,87,29.97,10.0,ESE,5.8,-,N/A,,Clear,110,2013-06-14 09:53:00
5:53 AM,66.0,63.0,90,29.97,10.0,East,4.6,-,N/A,,Clear,90,2013-06-14 10:53:00
6:53 AM,68.0,64.0,87,30.00,10.0,SSE,5.8,-,N/A,,Partly Cloudy,160,2013-06-14 11:53:00
7:53 AM,69.1,64.9,87,29.99,10.0,SSE,8.1,-,N/A,,Partly Cloudy,150,2013-06-14 12:53:00
8:53 AM,72.0,64.9,78,30.00,10.0,SSE,11.5,-,N/A,,Mostly Cloudy,150,2013-06-14 13:53:00
9:53 AM,75.0,64.0,69,29.99,10.0,SSE,16.1,-,N/A,,Scattered Clouds,150,2013-06-14 14:53:00
10:53 AM,75.9,64.0,67,29.97,10.0,South,13.8,-,N/A,,Clear,170,2013-06-14 15:53:00
11:53 AM,81.0,66.9,62,29.96,10.0,SSE,15.0,-,N/A,,Clear,150,2013-06-14 16:53:00
12:53 PM,81.0,68.0,65,29.95,10.0,SSE,8.1,-,N/A,,Clear,160,2013-06-14 17:53:00
1:53 PM,84.9,70.0,61,29.94,10.0,SSE,11.5,-,N/A,,Clear,160,2013-06-14 18:53:00
2:53 PM,84.9,71.1,63,29.92,10.0,SE,9.2,18.4,N/A,,Clear,130,2013-06-14 19:53:00
3:53 PM,87.1,72.0,61,29.89,10.0,SSE,11.5,23.0,N/A,,Partly Cloudy,160,2013-06-14 20:53:00
4:53 PM,86.0,72.0,63,29.88,10.0,SSE,15.0,-,N/A,,Mostly Cloudy,150,2013-06-14 21:53:00
5:53 PM,84.9,73.0,67,29.86,10.0,SE,15.0,-,N/A,,Mostly Cloudy,140,2013-06-14 22:53:00
6:53 PM,84.0,72.0,67,29.87,10.0,SE,11.5,19.6,N/A,,Mostly Cloudy,130,2013-06-14 23:53:00
7:53 PM,82.9,72.0,69,29.88,10.0,SE,11.5,-,N/A,,Scattered Clouds,140,2013-06-15 00:53:00
8:53 PM,81.0,71.1,72,29.88,10.0,SE,10.4,17.3,N/A,,Clear,140,2013-06-15 01:53:00
9:53 PM,79.0,70.0,74,29.91,10.0,SE,8.1,-,N/A,,Clear,130,2013-06-15 02:53:00
10:53 PM,78.1,69.1,74,29.93,10.0,SE,9.2,-,N/A,,Scattered Clouds,140,2013-06-15 03:53:00
11:53 PM,75.9,68.0,76,29.91,10.0,SSE,13.8,20.7,N/A,,Clear,160,2013-06-15 04:53:00